AMC-21

Last updated on Fri Feb 06 2026 00:02:50 GMT+0000 (Coordinated Universal Time)

1 33275U 08038B 26036.70396579 -.00000029 00000+0 00000+0 0 9992 2 33275 2.6079 81.7248 0008382 340.8332 353.4187 0.99013447 64165
UTC large
Height (km)
Speed (km/s)
/
Latitude / Longitude
Inclination (degrees)
Orbital Period (minutes)
Azimuth
Elevation
Range (km)
Doppler Factor

Next 0 passes for location: London (51.5072 / 0.1276)

Sorry there are no passes over London.
AMC-21